Regional Weather Roundup
Issued by NWS

Home | Current Version | Previous Version | Text Only | Print | Product List | Glossary On
Versions: 1 2 3 4 5 6 7 8 9 10 11 12 13 14 15 16 17 18 19 20 21 22 23 24 25 26 27 28 29 30 31 32 33 34 35 36 37 38 39 40 41 42 43 44 45 46 47 48 49 50
000
ASUS45 KSLC 290710
RWRUT

UTAH REGIONAL WEATHER ROUNDUP
NATIONAL WEATHER SERVICE SALT LAKE CITY UT
1200 AM MST SAT NOV 29 2014

UTZ001>011-023>025-290800-

NORTHERN UTAH

CITY           SKY/WX    TMP DP  RH WIND       PRES   REMARKS
BRIGHAM CITY   MOCLDY    54  18  25 S14       29.75S
HILL AFB       MOCLDY    53  18  25 S15       29.76S
LOGAN          CLEAR     52  22  30 S10       29.73S
OGDEN          MOCLDY    54  18  24 S12       29.75S
PROVO AIRPORT  PTCLDY    41  23  48 S5        29.85R
SALT LAKE CITY MOCLDY    58  12  16 S25G35    29.74F
VERNAL         PTCLDY    30  20  66 NW5       29.90F WCI  25
WENDOVER       CLEAR     48  16  27 SW3       29.75F
HEBER CITY     MOCLDY    43  19  39 SE7       29.85S
WEST JORDAN    CLEAR     55  25  30 SE20G29   29.79S

$$

UTZ012>022-026-027-290800-

SOUTHERN/CENTRAL UTAH

CITY           SKY/WX    TMP DP  RH WIND       PRES   REMARKS
BLANDING       MOCLDY    33  16  49 N3        30.10S
BRYCE CANYON   CLEAR     41  12  30 W10       30.06S
CEDAR CITY     PTCLDY    42  14  32 SW10      29.96S
DELTA          PTCLDY    48  13  24 S15       29.87S
MILFORD        CLEAR     40  14  34 SW18      29.91F WCI  31
MOAB/CYNLANDS  CLEAR     21  11  65 W3        29.93F
PRICE          PTCLDY    30  20  66 N7        29.95F WCI  23
ST GEORGE      PTSUNNY   39  14  35 CALM      29.96S
KANAB          CLEAR     28   9  43 NE6       30.04S WCI  22

$$

REGIONAL REPORTS     COLORADO/ARIZONA

CITY           SKY/WX    TMP DP  RH WIND       PRES   REMARKS
CRAIG, CO      CLEAR     26  18  71 SE7       29.90F WCI  18
GRAND JUNCTION CLEAR     32  22  66 E3        29.95F
RIFLE          CLEAR     27  23  85 CALM      29.98F
MONTROSE       CLEAR     28  16  60 SE7       30.00F WCI  21
CORTEZ         CLEAR     23  14  68 E5        30.05F WCI  17
PAGE, AZ       PTCLDY    40  20  44 CALM      29.98F
GRAND CANYON   PTCLDY    21   4  47 CALM      30.10F
KINGMAN        CLEAR     40  11  30 CALM      29.98S
FLAGSTAFF      PTCLDY    33  15  47 CALM      30.12F

$$

REGIONAL REPORTS    NEVADA/IDAHO/WYOMING

CITY           SKY/WX    TMP DP  RH WIND       PRES   REMARKS
LAS VEGAS, NV  CLEAR     49  23  36 SW6       29.85F
ELY            CLEAR     42  12  29 S13       29.91R
ELKO           CLOUDY    37  19  48 CALM      29.77F
POCATELLO, ID  PTCLDY    49  16  26 SW17      29.69F
BURLEY         CLOUDY    48  20  32 SW6       29.67F
EVANSTON, WY   PTCLDY    40  18  41 SW21      29.80F WCI  30
ROCK SPRINGS   PTCLDY    42  12  29 SW15      29.78F

$$


USA.gov is the U.S. government's official web portal to all federal, state and local government web resources and services.